User: anonymous   Login
Location: Unspecified
(0.0000°N, 0.0000°E)
Time: 19:41:02
(UTC+00:00)
Language:

AO-7 - Orbit

View from above orbital plane
View from above orbital plane
View from above satellite
View from above satellite

Ground track
Ground track

The orbit data is extracted from the following two-line orbital elements,

1 07530U 74089B   18145.90936567 -.00000043  00000-0  11151-4 0  9998
2 07530 101.6852 113.5650 0012354  20.3757  40.8085 12.53632668991804
Epoch (UTC): 25 May 2018 21:49:29
Eccentricity: 0.0012354
inclination: 101.6852°
perigee height: 1439 km
apogee height: 1459 km
right ascension of ascending node: 113.5650°
argument of perigee: 20.3757°
revolutions per day: 12.53632668
mean anomaly at epoch: 40.8085°
orbit number at epoch: 99180

The dashed part of the orbit path shows where the satellite is in the earth's shadow,  

DLR